Weather in Suntar

Russia / Sakha (Yakutia) Republic     62°09′38″N   117°38′51″E
temp.,
°C
wind,
m/s
gust,
m/s
humid.,
%
clouds,
%
prec.,
mm/h
press.,
hPa
HPBL,
m
29 november, mon
mon2900:00−18s1599100 0.1 1023110
03:00−19s1110088 0.2 102210
06:00−20s1110091 0.1 102213
09:00−22ssw1110095 0.1 10219
12:00−22wsw11100100 0.0 102119
15:00−22sw1110079 0.1 10219
18:00−26s00100100 0.0 10219
21:00−25sse11100100 0.1 102110
30 november, tue
tue3000:00−24sse11100100 0.0 102013
03:00−25e0010099 0.0 10209
06:00−23nnw1199100 0.0 102022
09:00−22n119996 0.1 102144
12:00−21nnw129687 0.1 1021142
15:00−21nnw129893 0.1 102166
18:00−23nne1110084 0.1 102212
21:00−23ese119976 0.1 102026
1 december, wed
wed100:00−24ese11100100 0.1 101810
03:00−23e1399100 0.1 101556
06:00−21ese2598100 0.0 1012152
09:00−20e259784 0.1 1010154
12:00−19ene269592 0.0 1008206
15:00−18ene2794100 0.1 1007282
18:00−19ne3795100 0.1 1008240
21:00−21nne369781 0.2 1010220
2 december, thu
thu200:00−23n379778 0.1 1013216
03:00−26n3797100 0.1 1015189
06:00−27nnw3698100 0.1 1018205
09:00−27nnw2598100 0.1 1019180
12:00−26nw2395100 0.1 1020254
15:00−24w1394100 0.3 1019320
18:00−24wsw1498100 0.1 1019283
21:00−23w1698100 0.2 1018336
3 december, fri
fri300:00−23w269795 0.1 1018401
03:00−27w259995 0.1 1018100
06:00−30wsw259984 0.0 101997
09:00−34sw1110073 0.0 10219
12:00−32wsw119827 0.0 102142
15:00−31s119941 0.0 102011
18:00−33se2210095 0.0 102032
21:00−27se2595100 0.0 1017141